Weather in Yeltsy

Russia / Vladimir Oblast     56°10′34″N   38°46′22″E
temp.,
°C
wind,
m/s
gust,
m/s
humid.,
%
clouds,
%
prec.,
mm/h
press.,
hPa
HPBL,
m
7 march, sun
sun700:00−12sw35930 0.0 101199
03:00−12ssw4119221 0.0 1008281
06:00−8ssw61392100 0.2 1003769
09:00−6ssw71392100 1.7 998980
12:00−4sw71292100 1.3 9941092
15:00−2wnw5991100 3.4 992902
18:00−5n0186100 0.4 99221
21:00−8w2285100 0.4 99221
8 march, mon
mon800:00−7w3996100 0.4 994446
03:00−10wsw399499 0.7 995291
06:00−9sw4119489 0.1 994691
09:00−8w489095 0.8 995848
12:00−6nw4580100 0.4 998947
15:00−5nnw5878100 0.9 10011163
18:00−9nnw4108896 0.1 1004561
21:00−12nw379578 0.1 1007158
9 march, tue
tue900:00−14nnw389557 0.0 1009221
03:00−15nnw379662 0.0 1011185
06:00−18nnw389676 0.0 1013214
09:00−18nnw379381 0.0 1015282
12:00−14nnw358588 0.0 1016512
15:00−13nnw468294 0.0 1018674
18:00−17nnw389195 0.0 1018318
21:00−21nnw389671 0.0 1021260
10 march, wed
wed1000:00−24nnw36970 0.0 1023135
03:00−25nnw24970 0.0 102482
06:00−26nnw23970 0.0 102562
09:00−22n24910 0.0 1026194
12:00−16nne23750 0.0 1027438
15:00−14n237217 0.0 1027715
18:00−17nnw118763 0.0 102720
21:00−20nw129231 0.0 102820
11 march, thu
thu1100:00−21wnw128732 0.0 102820
03:00−21wsw118535 0.0 102920
06:00−21sw128968 0.0 102820
09:00−17s248459 0.0 1028143
12:00−11sse367528 0.0 1027352
15:00−9s488744 0.0 1025578
18:00−11s4994100 0.1 1023439
21:00−11s41095100 0.2 1022372